Weather History for West Memphis, AR

Change the Weather History Date:

Sunday, March 10, 2013

  Actual Average Record
Temperature  
Mean Temperature 56 °F -  
Max Temperature 64 °F 62 °F 81 °F (1986)
Min Temperature 46 °F 40 °F 20 °F (1969)
Degree Days  
Heating Degree Days 9    
Growing Degree Days 6 (Base 50)    
Moisture  
Dew Point 51 °F    
Average Humidity 86    
Maximum Humidity 100    
Minimum Humidity 55    
Precipitation  
Precipitation 0.77 in - - ()
Sea Level Pressure  
Sea Level Pressure 29.82 in    
Wind  
Wind Speed 14 mph (South)    
Max Wind Speed 29 mph    
Max Gust Speed 38 mph    
Visibility 8 miles    
Events Rain    
Averages and records for this station are not official NWS values.
T = Trace of Precipitation, MM = Missing Value Source: NWS Daily Summary

Daily Weather History Graph

Daily Weather History Graph

Search for Another Location

Airport:

Trip Planner

Search our weather history database for the weather conditions in past years. The results will help you decide how hot, cold, wet, or windy it might be!

Date:

Astronomy

Mar. 10, 2013 Rise Set
Actual Time 7:18 AM CDT 7:04 PM CDT
Civil Twilight 6:52 AM CDT 7:29 PM CDT
Nautical Twilight 6:23 AM CDT 7:59 PM CDT
Astronomical Twilight 5:54 AM CDT 8:28 PM CDT
Moon 6:16 AM CDT (3/10) 6:12 PM CDT (3/10)
Length of Visible Light 12h 37m
Length of Day
11h 46m
Waning Crescent, 2% of the Moon is Illuminated
Mar 10
Waning Crescent
Mar 11
New
Mar 19
First Quarter
Mar 27
Full
Apr 2
Last Quarter

Hourly Weather History & Observations

Time (CDT) Temp. Windchill Dew Point Humidity Pressure Visibility Wind Dir Wind Speed Gust Speed Precip Events Conditions
12:53 AM 59.0 °F - 43.0 °F 55% 29.93 in 10.0 mi South 11.5 mph - N/A   Mostly Cloudy
1:53 AM 60.1 °F - 45.0 °F 57% 29.90 in 10.0 mi SSE 13.8 mph - N/A   Partly Cloudy
3:53 AM 60.1 °F - 46.0 °F 60% 29.88 in 9.0 mi SSE 16.1 mph - N/A   Partly Cloudy
4:37 AM 60.8 °F - 48.2 °F 63% 29.86 in 9.0 mi SSE 17.3 mph - N/A   Mostly Cloudy
4:53 AM 59.0 °F - 48.0 °F 67% 29.86 in 9.0 mi SSE 16.1 mph - N/A   Scattered Clouds
5:53 AM 60.1 °F - 50.0 °F 69% 29.87 in 10.0 mi South 19.6 mph 25.3 mph N/A   Mostly Cloudy
7:53 AM 59.0 °F - 52.0 °F 78% 29.83 in 10.0 mi SSE 19.6 mph 31.1 mph N/A   Clear
8:53 AM 61.0 °F - 52.0 °F 72% 29.83 in 10.0 mi SSE 25.3 mph 29.9 mph N/A   Scattered Clouds
9:53 AM 61.0 °F - 53.1 °F 75% 29.82 in 10.0 mi South 28.8 mph 36.8 mph N/A   Scattered Clouds
10:35 AM 62.6 °F - 53.6 °F 72% 29.79 in 10.0 mi SSE 26.5 mph 35.7 mph N/A   Mostly Cloudy
10:53 AM 62.1 °F - 54.0 °F 75% 29.80 in 10.0 mi South 25.3 mph 33.4 mph N/A   Overcast
11:53 AM 64.0 °F - 55.0 °F 73% 29.80 in 10.0 mi South 26.5 mph 38.0 mph N/A   Overcast
12:10 PM 64.4 °F - 55.4 °F 73% 29.79 in 10.0 mi South 26.5 mph 34.5 mph N/A   Overcast
12:53 PM 61.0 °F - 57.0 °F 87% 29.78 in 3.0 mi South 19.6 mph 26.5 mph 0.03 in Rain Light Rain
1:53 PM 59.0 °F - 55.9 °F 90% 29.78 in 3.0 mi West 10.4 mph 23.0 mph 0.09 in Rain Light Rain
1:58 PM 53.6 °F - 51.8 °F 94% 29.79 in 2.0 mi NW 16.1 mph 28.8 mph 0.04 in Rain Rain
2:05 PM 51.8 °F - 51.8 °F 100% 29.78 in 1.0 mi NW 13.8 mph 28.8 mph 0.12 in Rain Heavy Rain
2:14 PM 51.8 °F - 51.8 °F 100% 29.79 in 1.8 mi NNW 8.1 mph 19.6 mph 0.17 in Rain Rain
2:21 PM 51.8 °F - 51.8 °F 100% 29.81 in 2.5 mi NW 13.8 mph 19.6 mph 0.19 in Rain Light Rain
2:53 PM 52.0 °F - 52.0 °F 100% 29.81 in 2.5 mi NNW 8.1 mph - 0.32 in Rain Rain
2:56 PM 51.8 °F - 51.8 °F 100% 29.80 in 3.0 mi NNW 6.9 mph - 0.00 in Rain Light Rain
3:37 PM 51.8 °F - 51.8 °F 100% 29.82 in 1.8 mi Variable 4.6 mph - 0.04 in Rain Rain
3:53 PM 52.0 °F - 52.0 °F 100% 29.80 in 2.0 mi NNE 5.8 mph - 0.06 in Rain Rain
4:02 PM 51.8 °F - 51.8 °F 100% 29.81 in 8.0 mi Calm Calm - 0.02 in Rain Light Rain
4:53 PM 52.0 °F - 52.0 °F 100% 29.78 in 4.0 mi ESE 6.9 mph - 0.09 in Rain Light Rain
5:04 PM 51.8 °F - 51.8 °F 100% 29.78 in 9.0 mi ESE 9.2 mph - 0.02 in Rain Light Rain
5:53 PM 53.1 °F - 52.0 °F 96% 29.79 in 10.0 mi SSE 5.8 mph - 0.07 in   Overcast
6:23 PM 53.6 °F - 53.6 °F 100% 29.81 in 9.0 mi South 8.1 mph - 0.04 in Rain Light Rain
6:53 PM 53.1 °F - 52.0 °F 96% 29.81 in 10.0 mi South 6.9 mph - 0.07 in Rain Light Rain
7:16 PM 51.8 °F - 51.8 °F 100% 29.80 in 10.0 mi South 6.9 mph - 0.01 in   Overcast
7:40 PM 51.8 °F - 51.8 °F 100% 29.81 in 10.0 mi South 8.1 mph - 0.02 in   Mostly Cloudy
7:53 PM 52.0 °F - 51.1 °F 97% 29.81 in 10.0 mi South 8.1 mph - 0.03 in   Mostly Cloudy
8:03 PM 51.8 °F - 51.8 °F 100% 29.83 in 10.0 mi South 10.4 mph - N/A   Mostly Cloudy
9:53 PM 52.0 °F - 51.1 °F 97% 29.83 in 10.0 mi South 9.2 mph - 0.01 in   Overcast
10:08 PM 51.8 °F - 51.8 °F 100% 29.84 in 10.0 mi South 12.7 mph - N/A   Mostly Cloudy
10:28 PM 51.8 °F - 51.8 °F 100% 29.84 in 10.0 mi SSW 6.9 mph - N/A   Scattered Clouds
10:48 PM 51.8 °F - 44.6 °F 76% 29.84 in 10.0 mi WNW 9.2 mph - N/A   Mostly Cloudy
10:53 PM 50.0 °F - 44.1 °F 80% 29.84 in 10.0 mi WNW 8.1 mph - N/A   Mostly Cloudy
11:05 PM 50.0 °F - 44.6 °F 82% 29.85 in 10.0 mi Variable 5.8 mph - N/A   Mostly Cloudy
11:53 PM 48.0 °F - 41.0 °F 77% 29.86 in 10.0 mi West 5.8 mph - N/A   Overcast
12:53 AM 46.0 °F 41.0 °F 39.0 °F 76% 29.86 in 10.0 mi West 10.4 mph 17.3 mph N/A   Overcast